Flag for Israel Weather past 2 weeks in Kfar Saba, Israel

Now
54 °F

Clear.


Feels Like: 54 °F
Forecast: 59 / 79 °F
Wind: 2 mph from North

Location: Ben Gurion International Airport

Current Time: Mar 6, 2015 at 5:11:58 AM

Latest Report: Mar 6, 2015 at 4:50 AM


Visibility: 10 mi

Pressure: 30.09 "Hg

Humidity: 67%

Dew point: 43 °F

Location of Kfar SabaLocation

Historic Weather in Kfar Saba — Graph

°F

Kfar Saba temperature yesterday

Maximum temperature yesterday: 70 °F (at 12:50 PM)
Minimum temperature yesterday: 50 °F (at 4:50 AM)
Average temperature yesterday: 60 °F

Past Weeks' High & Low Weather Summary

 TemperatureHumidityPressure
High86 °F (Feb 27, 1:50 PM)94% (Feb 19, 12:50 PM)30.21 "Hg (Feb 19, 12:50 PM)
Low41 °F (Feb 19, 11:20 PM)19% (Feb 27, 11:50 AM)29.71 "Hg (Feb 20, 4:50 AM)
Average59 °F67%30.03 "Hg
* Reported Feb 19 3:20 AM — Mar 6 3:50 AM, Kfar Saba, Weather by CustomWeather, © 2015

Note: Actual official high and low records may vary slightly from our data, if they occured in-between our weather recording intervals... More about our weather records

Advertising

Kfar Saba weather history for previous 24 hours

 ConditionsComfort  
Time TempWeatherWind HumidityBarometerVisibility
3:50 AM
Fri, Mar 6
55 °FClear.1 mph63%30.09 "Hg10 mi
3:20 AM57 °FClear.3 mph59%30.09 "Hg10 mi
2:50 AM57 °FClear.3 mph59%30.09 "Hg10 mi
2:20 AM57 °FClear.6 mph63%30.09 "Hg10 mi
1:50 AM59 °FClear.9 mph59%30.09 "Hg10 mi
1:20 AM57 °FClear.10 mph67%30.09 "Hg10 mi
12:50 AM57 °FClear.13 mph67%30.09 "Hg10 mi
12:20 AM57 °FClear.10 mph72%30.09 "Hg10 mi
11:50 PM
Thu, Mar 5
57 °FClear.12 mph72%30.12 "Hg10 mi
11:20 PM57 °FClear.9 mph72%30.12 "Hg10 mi
10:50 PM57 °FClear.9 mph72%30.12 "Hg10 mi
10:20 PM57 °FClear.8 mph72%30.12 "Hg10 mi
9:50 PM59 °FClear.7 mph68%30.12 "Hg10 mi
9:20 PM59 °FClear.12 mph68%30.12 "Hg10 mi
8:50 PM59 °FClear.13 mph68%30.12 "Hg10 mi
8:20 PM59 °FClear.13 mph68%30.12 "Hg10 mi
7:50 PM61 °FClear.12 mph63%30.12 "Hg10 mi
7:20 PM61 °FClear.10 mph63%30.12 "Hg10 mi
6:50 PM63 °FClear.9 mph59%30.09 "Hg10 mi
6:20 PM63 °FClear.10 mph64%30.09 "Hg10 mi
5:50 PM63 °FClear.8 mph64%30.09 "Hg10 mi
5:20 PM64 °FSunny.10 mph60%30.09 "Hg10 mi
4:50 PM66 °FSunny.13 mph52%30.09 "Hg10 mi
4:20 PM68 °FSunny.14 mph53%30.09 "Hg10 mi
3:50 PM68 °FSunny.15 mph53%30.09 "Hg10 mi
3:20 PM68 °FSunny.15 mph56%30.09 "Hg10 mi
2:50 PM68 °FPassing clouds.14 mph56%30.09 "HgN/A
2:20 PM70 °FPassing clouds.14 mph53%30.09 "HgN/A
1:50 PM70 °FPassing clouds.12 mph50%30.09 "HgN/A
1:20 PM70 °FPassing clouds.12 mph50%30.09 "HgN/A
12:50 PM70 °FPassing clouds.6 mph43%30.12 "HgN/A
12:20 PM68 °FPassing clouds.8 mph46%30.12 "HgN/A
11:50 AM66 °FPassing clouds.9 mph49%30.12 "HgN/A
11:20 AM66 °FPassing clouds.9 mph52%30.12 "HgN/A
10:50 AM64 °FPassing clouds.12 mph56%30.15 "HgN/A
10:20 AM64 °FPassing clouds.9 mph56%30.15 "HgN/A
9:50 AM64 °FPassing clouds.6 mph56%30.15 "HgN/A
9:20 AM64 °FPassing clouds.3 mph64%30.15 "HgN/A
8:50 AM64 °FPassing clouds.1 mph64%30.15 "HgN/A
8:20 AM61 °FSunny.1 mph68%30.15 "Hg10 mi
7:50 AM57 °FSunny.3 mph77%30.15 "Hg10 mi
7:20 AM54 °FSunny.3 mph82%30.15 "Hg10 mi
6:50 AM52 °FPassing clouds.5 mph88%30.15 "HgN/A
6:20 AM52 °FSunny.2 mph88%30.12 "Hg10 mi
5:20 AM52 °FPassing clouds.3 mph88%30.12 "HgN/A
Weather by CustomWeather, © 2015

See weather overviewHow to use our weather pages